Torna al catalogo

STARLINK-35495

AttivoComunicazioniVLEO
NORAD 66243·PAYLOAD·🇺🇸 United States

Lanciato Oct 29, 2025 da Cape Canaveral Space Force Station

Loading…

Prossimi Passaggi (prossime 24 ore)

TLE

AggiornatoSource: CelesTrak SupGP

Epoca: Sep 14, 2026, 14:17 UTC

1 66243C 25245K   26257.59562500  .00048041  00000+0  14192-2 0  2575
2 66243  53.1573 125.4544 0001181  99.5016 233.6580 15.34370178    10

Traccia STARLINK-35495 in tempo reale con AllMySat

Download on the App Store